Location: Proctor
(47.8934°N, 114.3048°W)
Time: 14:10:22
(UTC+00:00)

POLYITAN 1 - Pass Details

Date: 07 July 2022
Orbit: 586 x 605 km, 98.0° (Epoch: 18 August)

Event Time Altitude Azimuth Distance (km) Brightness Sun altitude
Rises 08:42:55 0° 23° (NNE) 2,868 ? -18.2°
Reaches altitude 10° 08:45:22 10° 36° (NE) 1,962 ? -18.1°
Maximum altitude 08:49:02 27° 95° (E) 1,164 ? -18.0°
Enters shadow 08:51:12 18° 139° (SE) 1,490 ? -17.9°
